This is the latest recevied weather packets stored in our database for station/object W1GK. If no packets are shown the sender has not sent any weather packets the latest 10 day(s).
| Time | Temp. | Humidity | Pressure | Rain* | Wind** | Luminosity | Snow |
|---|---|---|---|---|---|---|---|
| 1777666804 | 28.33° C | 11% | 1014.8 hPa | 0 mm | - | 900 W/m² | - |
| 1777666200 | 27.78° C | 11% | 1014.9 hPa | 0 mm | - | 909 W/m² | - |
| 1777665602 | 27.78° C | 11% | 1015.1 hPa | 0 mm | - | 911 W/m² | - |
| 1777665003 | 27.78° C | 12% | 1015.2 hPa | 0 mm | - | 916 W/m² | - |
| 1777664401 | 27.22° C | 12% | 1015.3 hPa | 0 mm | - | 923 W/m² | - |
| 1777663802 | 27.22° C | 12% | 1015.4 hPa | 0 mm | - | 914 W/m² | - |
| 1777663202 | 26.67° C | 12% | 1015.4 hPa | 0 mm | - | 912 W/m² | - |
| 1777662602 | 27.78° C | 11% | 1015.6 hPa | 0 mm | - | 907 W/m² | - |
| 1777662003 | 26.67° C | 12% | 1015.7 hPa | 0 mm | - | 905 W/m² | - |
| 1777661401 | 26.67° C | 12% | 1015.8 hPa | 0 mm | - | 893 W/m² | - |
| 1777660802 | 27.22° C | 12% | 1016 hPa | 0 mm | - | 886 W/m² | - |
| 1777660201 | 26.11° C | 13% | 1016.1 hPa | 0 mm | - | 875 W/m² | - |
| 1777659602 | 26.11° C | 13% | 1016.1 hPa | 0 mm | - | 865 W/m² | - |
| 1777659003 | 26.11° C | 12% | 1016.2 hPa | 0 mm | - | 872 W/m² | - |
| 1777658401 | 25° C | 12% | 1016.3 hPa | 0 mm | - | 840 W/m² | - |
| 1777657801 | 25° C | 13% | 1016.4 hPa | 0 mm | - | 826 W/m² | - |
| 1777657199 | 24.44° C | 13% | 1016.4 hPa | 0 mm | - | 807 W/m² | - |
| 1777656601 | 24.44° C | 13% | 1016.4 hPa | 0 mm | - | 800 W/m² | - |
| 1777656000 | 23.89° C | 13% | 1016.4 hPa | 0 mm | - | 772 W/m² | - |
| 1777655400 | 23.89° C | 13% | 1016.4 hPa | 0 mm | - | 763 W/m² | - |
| 1777654800 | 23.89° C | 13% | 1016.3 hPa | 0 mm | - | 756 W/m² | - |
| 1777654202 | 23.89° C | 15% | 1016.4 hPa | 0 mm | - | 724 W/m² | - |
| 1777653600 | 23.33° C | 16% | 1016.3 hPa | 0 mm | - | 520 W/m² | - |
| 1777652999 | 22.78° C | 17% | 1016.3 hPa | 0 mm | - | 174 W/m² | - |
| 1777652400 | 22.78° C | 17% | 1016.3 hPa | 0 mm | - | 216 W/m² | - |
* Rain latest hour (hover to see other rain measurements)
** Current wind speed in m/s (hover to see current wind gust speed)